Home   Weather   Genoa   Past weeks

Flag for Italy Past Weather in Genoa, Italy — Yesterday and Last 2 Weeks

Now
50 °F

Passing clouds.


Feels Like: 46 °F
Forecast: 46 / 55 °F
Wind: 12 mph from Northeast

Location: Genova / Sestri

Current Time: Feb 26, 2017 at 2:22:11 am

Latest Report: Feb 26, 2017 at 1:50 am


Visibility: N/A

Pressure: 30.15 "Hg

Humidity: 32%

Dew Point: 21 °F

Location of GenoaLocation

Past Weather in Genoa — Graph

°F

Genoa Temperature Yesterday

Maximum temperature yesterday: 57 °F (at 12:50 am)
Minimum temperature yesterday: 50 °F (at 4:50 am)
Average temperature yesterday: 54 °F

High & Low Weather Summary for the Past Weeks

 TemperatureHumidityPressure
High61 °F (Feb 18, 11:20 am)94% (Feb 17, 4:20 am)30.57 "Hg (Feb 17, 4:20 am)
Low43 °F (Feb 11, 12:20 am)27% (Feb 25, 12:50 am)29.68 "Hg (Feb 24, 4:20 pm)
Average52 °F69%30.22 "Hg
* Reported Feb 11 12:20 am — Feb 26 12:50 am, Genoa, Weather by CustomWeather, © 2017

Note: Actual official high and low records may vary slightly from our data, if they occured in-between our weather recording intervals... More about our weather records

Advertising

Genoa Weather History for the Previous 24 Hours

Scroll right to see more
 ConditionsComfort  
Time TempWeatherWind HumidityBarometerVisibility
12:50 am
Sun, Feb 26
50 °FPassing clouds.10 mph32%30.15 "HgN/A
12:20 am50 °FPassing clouds.12 mph37%30.15 "HgN/A
11:50 pm
Sat, Feb 25
50 °FPassing clouds.10 mph35%30.15 "HgN/A
11:20 pm50 °FPassing clouds.7 mph37%30.15 "HgN/A
10:50 pm50 °FPassing clouds.8 mph37%30.15 "HgN/A
10:20 pm50 °FPassing clouds.6 mph37%30.15 "HgN/A
9:50 pm52 °FPassing clouds.3 mph32%30.15 "HgN/A
9:20 pm52 °FPassing clouds.3 mph32%30.15 "HgN/A
8:50 pm52 °FClear.2 mph32%30.12 "Hg10 mi
8:20 pm52 °FClear.5 mph35%30.12 "Hg10 mi
7:50 pm54 °FPassing clouds.10 mph33%30.12 "HgN/A
7:20 pm54 °FPassing clouds.15 mph35%30.12 "HgN/A
6:50 pm54 °FPassing clouds.10 mph35%30.12 "HgN/A
6:20 pm54 °FPassing clouds.14 mph35%30.12 "HgN/A
5:50 pm54 °FPassing clouds.16 mph35%30.09 "HgN/A
5:20 pm55 °FPassing clouds.16 mph33%30.09 "HgN/A
4:50 pm55 °FPassing clouds.14 mph36%30.09 "HgN/A
4:20 pm55 °FPassing clouds.17 mph36%30.09 "HgN/A
3:50 pm57 °FPassing clouds.16 mph33%30.09 "HgN/A
3:20 pm57 °FPassing clouds.15 mph33%30.09 "HgN/A
2:50 pm57 °FPassing clouds.14 mph33%30.09 "HgN/A
2:20 pm57 °FPassing clouds.15 mph36%30.09 "HgN/A
1:50 pm57 °FPassing clouds.15 mph39%30.09 "HgN/A
1:20 pm57 °FPassing clouds.16 mph39%30.09 "HgN/A
12:50 pm55 °FPassing clouds.18 mph38%30.09 "HgN/A
12:20 pm55 °FPassing clouds.18 mph36%30.09 "HgN/A
11:50 am55 °FPassing clouds.15 mph38%30.09 "HgN/A
11:20 am55 °FPassing clouds.16 mph33%30.09 "HgN/A
10:50 am55 °FPassing clouds.15 mph33%30.09 "HgN/A
10:20 am55 °FPassing clouds.9 mph31%30.09 "HgN/A
9:50 am55 °FPassing clouds.12 mph31%30.09 "HgN/A
9:20 am54 °FPassing clouds.10 mph33%30.07 "HgN/A
8:50 am54 °FPassing clouds.15 mph35%30.07 "HgN/A
8:20 am54 °FPassing clouds.9 mph33%30.04 "HgN/A
7:50 am54 °FPassing clouds.9 mph30%30.04 "HgN/A
7:20 am54 °FPassing clouds.9 mph33%30.01 "HgN/A
6:50 am52 °FClear.7 mph41%29.98 "Hg10 mi
6:20 am50 °FPassing clouds.5 mph54%29.98 "HgN/A
5:50 am50 °FPassing clouds.3 mph54%29.95 "HgN/A
5:20 am50 °FPassing clouds.3 mph58%29.95 "HgN/A
4:50 am50 °FPassing clouds.3 mph58%29.92 "HgN/A
4:20 am54 °FPassing clouds.9 mph47%29.92 "HgN/A
3:50 am52 °FPassing clouds.8 mph58%29.89 "HgN/A
3:20 am54 °FPassing clouds.3 mph47%29.89 "HgN/A
2:50 am54 °FPassing clouds.7 mph47%29.86 "HgN/A
2:20 am55 °FPassing clouds.6 mph44%29.86 "HgN/A
Weather by CustomWeather, © 2017

See weather overviewHow to use our weather pages